TimeCDT,TemperatureF,Dew PointF,Humidity,Sea Level PressureIn,VisibilityMPH,Wind Direction,Wind SpeedMPH,Gust SpeedMPH,PrecipitationIn,Events,Conditions,WindDirDegrees,DateUTC
12:55 AM,67.3,63.7,88,30.01,10.0,Calm,Calm,-,N/A,,Clear,0,2012-10-03 05:55:00
1:55 AM,66.7,63.1,88,30.01,10.0,Calm,Calm,-,N/A,,Mostly Cloudy,0,2012-10-03 06:55:00
2:55 AM,65.1,59.7,83,30.01,10.0,NE,3.5,-,N/A,,Mostly Cloudy,50,2012-10-03 07:55:00
3:55 AM,64.0,60.3,87,30.01,10.0,NE,5.8,-,N/A,,Clear,50,2012-10-03 08:55:00
4:55 AM,65.3,64.2,96,30.02,10.0,East,4.6,-,N/A,,Clear,90,2012-10-03 09:55:00
5:55 AM,64.0,61.9,93,30.05,10.0,NE,3.5,-,N/A,,Clear,40,2012-10-03 10:55:00
6:55 AM,65.3,63.1,93,30.06,10.0,East,3.5,-,N/A,,Clear,80,2012-10-03 11:55:00
7:55 AM,67.1,65.5,95,30.07,10.0,ENE,4.6,-,N/A,,Clear,70,2012-10-03 12:55:00
8:55 AM,71.1,64.0,78,30.09,10.0,East,5.8,-,N/A,,Clear,80,2012-10-03 13:55:00
9:55 AM,75.2,65.3,71,30.10,10.0,East,6.9,-,N/A,,Clear,90,2012-10-03 14:55:00
10:55 AM,77.7,64.6,64,30.11,10.0,SSE,6.9,-,N/A,,Clear,150,2012-10-03 15:55:00
11:55 AM,79.2,64.8,61,30.11,10.0,SSE,9.2,-,N/A,,Clear,160,2012-10-03 16:55:00
12:55 PM,80.6,64.4,58,30.09,10.0,SSE,12.7,-,N/A,,Clear,150,2012-10-03 17:55:00
1:55 PM,79.7,65.3,61,30.08,10.0,SSE,9.2,-,N/A,,Clear,150,2012-10-03 18:55:00
2:55 PM,80.1,59.0,48,30.07,10.0,South,11.5,-,N/A,,Clear,170,2012-10-03 19:55:00
3:55 PM,79.9,63.3,57,30.07,10.0,SSE,9.2,-,N/A,,Clear,160,2012-10-03 20:55:00
4:55 PM,79.0,63.3,59,30.07,10.0,SSE,10.4,-,N/A,,Clear,150,2012-10-03 21:55:00
5:55 PM,77.4,64.8,65,30.08,10.0,SSE,9.2,-,N/A,,Clear,150,2012-10-03 22:55:00
6:55 PM,75.4,64.9,70,30.10,10.0,Variable,5.8,-,N/A,,Clear,0,2012-10-03 23:55:00
7:55 PM,74.7,64.0,69,30.10,10.0,SE,4.6,-,N/A,,Clear,140,2012-10-04 00:55:00
8:55 PM,74.1,63.7,70,30.12,10.0,East,4.6,-,N/A,,Clear,100,2012-10-04 01:55:00
9:55 PM,73.2,62.6,69,30.13,10.0,SE,3.5,-,N/A,,Clear,130,2012-10-04 02:55:00
10:55 PM,69.6,61.7,76,30.14,10.0,NE,4.6,-,N/A,,Clear,50,2012-10-04 03:55:00
11:55 PM,67.8,62.6,83,30.14,10.0,ENE,5.8,-,N/A,,Clear,70,2012-10-04 04:55:00